Flag for Poland Weather past 2 weeks in Gdynia, Poland

32 °F

Passing clouds.

Feels Like: 23 °F
Forecast: 34 / 38 °F
Wind: 12 mph from Southwest

Location: Gdansk-Rebiechowo

Current Time: Nov 25, 2015 at 3:30:23 AM

Latest Report: Nov 25, 2015 at 3:00 AM

Visibility: N/A

Pressure: 29.86 "Hg

Humidity: 75%

Dew point: 25 °F

Location of GdyniaLocation

Historic Weather in Gdynia — Graph


Gdynia temperature yesterday

Maximum temperature yesterday: 34 °F (at 12:30 AM)
Minimum temperature yesterday: 28 °F (at 7:00 AM)
Average temperature yesterday: 32 °F

Past Weeks' High & Low Weather Summary

High55 °F (Nov 10, 12:00 PM)100% (Nov 10, 6:30 AM)30.18 "Hg (Nov 10, 6:30 AM)
Low28 °F (Nov 24, 7:00 AM)65% (Nov 21, 1:30 PM)29.27 "Hg (Nov 18, 6:00 AM)
Average43 °F89%29.72 "Hg
* Reported Nov 10 2:00 AM — Nov 25 2:30 AM, Gdynia, Weather by CustomWeather, © 2015

Note: Actual official high and low records may vary slightly from our data, if they occured in-between our weather recording intervals... More about our weather records


Gdynia weather history for previous 24 hours

Time TempWeatherWind HumidityBarometerVisibility
2:30 AM
Wed, Nov 25
32 °FPassing clouds.12 mph75%29.86 "HgN/A
2:00 AM32 °FPassing clouds.10 mph80%29.89 "HgN/A
1:00 AM32 °FPassing clouds.9 mph80%29.89 "HgN/A
12:30 AM32 °FPassing clouds.9 mph80%29.92 "HgN/A
12:00 AM32 °FPassing clouds.10 mph80%29.92 "HgN/A
11:00 PM
Tue, Nov 24
34 °FPassing clouds.12 mph75%29.92 "HgN/A
10:30 PM34 °FClear.12 mph75%29.95 "Hg10 mi
10:00 PM34 °FPassing clouds.13 mph81%29.95 "HgN/A
9:30 PM34 °FPassing clouds.13 mph81%29.95 "HgN/A
9:00 PM34 °FPassing clouds.14 mph81%29.98 "HgN/A
8:30 PM34 °FClear.12 mph81%29.98 "Hg10 mi
8:00 PM34 °FPassing clouds.12 mph81%29.98 "HgN/A
7:30 PM34 °FPassing clouds.12 mph81%29.98 "HgN/A
7:00 PM32 °FPassing clouds.10 mph87%29.98 "HgN/A
6:30 PM32 °FPassing clouds.8 mph87%30.01 "HgN/A
6:00 PM32 °FPassing clouds.8 mph80%30.01 "HgN/A
5:30 PM32 °FPassing clouds.7 mph75%30.01 "HgN/A
5:00 PM32 °FPassing clouds.10 mph75%30.04 "HgN/A
4:30 PM32 °FPassing clouds.12 mph75%30.04 "HgN/A
4:00 PM32 °FPassing clouds.12 mph75%30.04 "HgN/A
3:30 PM34 °FPassing clouds.10 mph70%30.04 "HgN/A
3:00 PM34 °FPassing clouds.9 mph75%30.04 "HgN/A
2:30 PM34 °FPassing clouds.9 mph75%30.04 "HgN/A
2:00 PM34 °FPassing clouds.10 mph75%30.04 "HgN/A
1:30 PM34 °FPassing clouds.10 mph75%30.04 "HgN/A
1:00 PM34 °FScattered clouds.8 mph70%30.07 "HgN/A
12:30 PM34 °FPartly sunny.9 mph70%30.07 "HgN/A
12:00 PM32 °FPartly sunny.9 mph75%30.07 "HgN/A
11:30 AM32 °FPartly sunny.8 mph80%30.09 "HgN/A
11:00 AM32 °FScattered clouds.9 mph80%30.09 "HgN/A
10:30 AM32 °FPassing clouds.8 mph80%30.09 "HgN/A
10:00 AM32 °FPassing clouds.9 mph80%30.09 "HgN/A
9:30 AM30 °FSunny.9 mph86%30.09 "Hg10 mi
9:00 AM30 °FPassing clouds.10 mph86%30.09 "HgN/A
8:00 AM28 °FPassing clouds.7 mph93%30.12 "HgN/A
7:30 AM28 °FPassing clouds.5 mph93%30.12 "HgN/A
7:00 AM28 °FPassing clouds.3 mph93%30.12 "HgN/A
6:30 AM30 °FPassing clouds.6 mph86%30.09 "HgN/A
6:00 AM30 °FPassing clouds.6 mph93%30.09 "HgN/A
5:30 AM30 °FPassing clouds.6 mph86%30.12 "HgN/A
5:00 AM30 °FPassing clouds.6 mph93%30.09 "HgN/A
4:00 AM30 °FPassing clouds.5 mph93%30.09 "HgN/A
3:30 AM32 °FPassing clouds.6 mph87%30.12 "HgN/A
3:00 AM32 °FPassing clouds.6 mph93%30.12 "HgN/A
Weather by CustomWeather, © 2015

See weather overviewHow to use our weather pages